User: anonymous   Login
Location: Hawks Ness
(60.2333°N, 1.1667°W)
Time: 23:23:23
(UTC+00:00)
Language:

ADEOS Rocket - Orbit

View from above orbital plane
View from above orbital plane
View from above satellite
View from above satellite

Ground track
Ground track

The orbit data is extracted from the following two-line orbital elements,

1 24279U 96046C   19343.53267616 -.00000005  00000-0  35611-4 0  9991
2 24279  98.6943 184.8712 0300494 140.7274 275.3736 13.47132612146140
Epoch (UTC): 09 December 2019 12:47:03
Eccentricity: 0.0300494
inclination: 98.6943°
perigee height: 858 km
apogee height: 1307 km
right ascension of ascending node: 184.8712°
argument of perigee: 140.7274°
revolutions per day: 13.47132612
mean anomaly at epoch: 275.3736°
orbit number at epoch: 14614

The dashed part of the orbit path shows where the satellite is in the earth's shadow,  

DLR